User: anonymous   Login
Location: Unspecified
(0.0000°N, 0.0000°E)
Time: 22:28:42
(UTC+00:00)
Language:

STARLINK-33990 - Orbit

View from above orbital plane
View from above orbital plane
View from above satellite
View from above satellite

Ground track
Ground track

The orbit is defined by the following mean orbital elements,

1 63840U          26145.32890913 +.00000000 +00000-0 +66366-3 0 00007
2 63840  43.0054   5.0276 0001541 250.1364 109.9322 15.27597046    03
Epoch (UTC): 25 May 2026 07:53:37
Eccentricity: 0.0001541
inclination: 43.0054°
perigee height: 482 km
apogee height: 484 km
right ascension of ascending node: 5.0276°
argument of perigee: 250.1364°
revolutions per day: 15.27597046
mean anomaly at epoch: 109.9322°

The dashed part of the orbit path shows where the satellite is in the earth's shadow,  

DLR